Weather Service Report


855 
FPUS83 KFGF 300031
OPUFGF
PRAIRIE TO PINES WEATHER ROUNDUP
NATIONAL WEATHER SERVICE EASTERN NORTH DAKOTA/GRAND FORKS ND
600 PM CST THU JAN 29 2015

 **SATELLITE DATA USED TO AUGMENT SKY COVER AT AUTOMATED STATIONS**
 *****  WEATHER ACROSS EASTERN NORTH DAKOTA  *****
  
CITY           SKY/WX    TMP DP  RH WIND       PRES   REMARKS
GRAND FORKS    PTCLDY     8   2  76 N8        30.57R WCI  -4          
6HR MIN TEMP:   8; 6HR MAX TEMP:  15; 6HR PCP: TRACE;                

GRAND FORKS AF CLEAR      7   1  76 NE7       30.57R WCI  -5          
GRAND CITY NWS   N/A      7 N/A N/A N6          N/A  WCI  -3          
BUXTON           N/A     10   2  72 N8          N/A  WCI  -2          
DEVILS LAKE    CLOUDY    10   3  72 NE7       30.50S WCI   0          
6HR MIN TEMP:  10; 6HR MAX TEMP:  14;                                

FARGO          CLEAR     14   5  67 N9        30.55S WCI   2          
6HR MIN TEMP:  14; 6HR MAX TEMP:  20; 6HR PCP: TRACE;                

WAHPETON ARPT  PTCLDY    18   9  68 N9        30.54R WCI   6          
$$

 *****  WEATHER ACROSS CENTRAL AND WESTERN NORTH DAKOTA  *****
  
CITY           SKY/WX    TMP DP  RH WIND       PRES   REMARKS
JAMESTOWN      CLOUDY    18  11  74 N8        30.49R WCI   8          
6HR MIN TEMP:  18; 6HR MAX TEMP:  20; 6HR PCP: TRACE;                

BISMARCK       PTCLDY    25  20  81 NE7       30.47R WCI  17          
6HR MIN TEMP:  25; 6HR MAX TEMP:  31;                                

MINOT          CLOUDY    16  10  77 E8        30.45S WCI   5          
6HR MIN TEMP:  16; 6HR MAX TEMP:  19; 6HR PCP: TRACE;                

MINOT AFB      CLOUDY    15  13  94 E9        30.45S WCI   3          
6HR MIN TEMP:  15; 6HR MAX TEMP:  18; 6HR PCP:  0.10;                

GARRISON         N/A     21  16  81 E5        30.43S WCI  15          
6HR MIN TEMP:  21; 6HR MAX TEMP:  26;                                

WILLISTON      CLEAR     28  20  71 E6        30.38F WCI  22          
6HR MIN TEMP:  25; 6HR MAX TEMP:  33;                                

DICKINSON      CLEAR     34  18  52 E5        30.35S                  
6HR MIN TEMP:  32; 6HR MAX TEMP:  38;                                

HETTINGER      CLEAR     36  15  42 SW3       30.38S                  
6HR MIN TEMP:  33; 6HR MAX TEMP:  41;                                

$$

 *****  OTHER OBSERVATIONS NORTHEAST NORTH DAKOTA  *****
  
CITY           SKY/WX    TMP DP  RH WIND       PRES   REMARKS
WALHALLA         N/A      7   0  72 N6        30.57S WCI  -3          
LANGDON        NOT AVBL                                               
CAVALIER       FAIR       7   0  72 N5        30.58R WCI  -2          
GRAFTON        NOT AVBL                                               
CANDO          CLOUDY    10   5  79 CALM      30.51S                  
FORT TOTTEN      N/A     11   5  77 N2        29.95S                  
ROLLA          MOCLDY     7   5  92 CALM      30.47F                  
RUGBY          FAIR       7   3  85 NW7       30.50R WCI  -5          
 ***** THE ABOVE OBSERVATIONS ARE NON NWS ARE NOT QUALITY
        CONTROLLED AND MAY MIS-REPORT RAIN FOR SNOW...
$$

 *****  OTHER OBSERVATIONS SOUTHEAST NORTH DAKOTA *****
  
CITY           SKY/WX    TMP DP  RH WIND       PRES   REMARKS
COOPERSTOWN    NOT AVBL                                               
VALLEY CITY    CLOUDY    16  12  86 N7        30.51S WCI   6          
OAKES            N/A     19  14  79 NW8       30.52R WCI   9          
GWINNER        CLOUDY    19  14  79 N13       30.53S WCI   7          
SHEYENNE NWR     N/A     16   7  67 N7        29.95S WCI   6          
BUFFALO        NOT AVBL                                               
WYNDMERE         N/A     16   9  73 N12         N/A  WCI   3          
 ***** THE ABOVE OBSERVATIONS ARE NON NWS ARE NOT QUALITY
       CONTROLLED AND MAY MIS-REPORT RAIN FOR SNOW...
$$

  *****  WEATHER ACROSS NORTHERN MINNESOTA  *****     
  
CITY           SKY/WX    TMP DP  RH WIND       PRES   REMARKS
FLAG ISLAND    CLEAR      3  -2  78 NW14      30.49R WCI -15          
WARROAD        CLEAR      3  -2  78 W7        30.51R WCI  -9          
ROSEAU         CLEAR      3  -2  78 NW6       30.52R WCI  -8          
HALLOCK        CLEAR      3  -2  78 N8        30.57S WCI -10          
THF RVR FALLS  CLEAR      3   1  92 NW8       30.53R WCI -10          
6HR MIN TEMP:   3; 6HR MAX TEMP:  10;                                

HALSTAD          N/A      8   0  67 N9          N/A  WCI  -5          
FOSSTON        CLEAR      3   0  85 NW10      30.52R WCI -12          
BAUDETTE       CLEAR      4  -3  73 NW9       30.46R WCI -10          
6HR MIN TEMP:   4; 6HR MAX TEMP:   8;                                

WASKISH        CLEAR      5   0  78 CALM      30.48R                  
CROOKSTON      CLEAR      7   1  78 N12       30.58R WCI  -9          
$$
  *****  WEATHER ACROSS CENTRAL AND WEST MINNESOTA  *****     
  
CITY           SKY/WX    TMP DP  RH WIND       PRES   REMARKS
BEMIDJI        MOCLDY     6   1  79 NW9       30.46R WCI  -8          
PARK RAPIDS    CLEAR     11   4  73 NW12      30.44R WCI  -3          
6HR MIN TEMP:  11; 6HR MAX TEMP:  18; 6HR PCP: TRACE;                

WADENA         PTCLDY    10   5  79 NW10      30.46R WCI  -3          
DETROIT LAKES  CLEAR      9   5  85 NW12      30.51R WCI  -6          
MOORHEAD       CLEAR     12   9  85 N9        30.56S WCI   0          
FERGUS FALLS   CLEAR     12   5  73 N12G18    30.55S WCI  -2          
ELBOW LAKE     FAIR      13   7  78 N14G21    30.50S WCI  -2          
MORRIS MN      CLOUDY    16  10  79 N16       30.51R WCI   0          
STAPLES        CLEAR     10   7  85 NW9       30.46R WCI  -2          
WHEATON        MIX PCPN  16  10  79 N10       30.55R WCI   3          
$$
  *****  WEATHER ELSEWHERE ACROSS MINNESOTA  *****     
  
CITY           SKY/WX    TMP DP  RH WIND       PRES   REMARKS
DULUTH         MOCLDY    12   2  64 NW12      30.34R WCI  -2          
6HR MIN TEMP:  12; 6HR MAX TEMP:  22; 6HR PCP: TRACE;                

INTRNTL FALLS  CLOUDY     7  -2  66 NW14      30.43R WCI -10          
6HR MIN TEMP:   7; 6HR MAX TEMP:  11; 6HR PCP: TRACE;                

ELY            CLOUDY    10   1  67 N9G21     30.34R WCI  -2          
CLOQUET        CLEAR     12   1  62 NW12G20   30.38R WCI  -2          
BRAINERD       CLEAR     15   5  64 NW10      30.43R WCI   2          
6HR MIN TEMP:  14; 6HR MAX TEMP:  21; 6HR PCP: TRACE;                

HIBBING        PTCLDY    10   0  63 N18       30.39R WCI  -8          
6HR MIN TEMP:   8; 6HR MAX TEMP:  16; 6HR PCP: TRACE;                

ALEXANDRIA     PTCLDY    13   6  74 NW9       30.47R WCI   1          
6HR MIN TEMP:  13; 6HR MAX TEMP:  20; 6HR PCP: TRACE;                

SAINT CLOUD    CLEAR     19   7  59 NW9G20    30.43R WCI   8          
6HR MIN TEMP:  19; 6HR MAX TEMP:  26;                                

MINNEAPOLIS    PTCLDY    24  12  60 NW18G25   30.40R WCI  10          
6HR MIN TEMP:  24; 6HR MAX TEMP:  32;                                

$$

  *****  WEATHER ACROSS SOUTH DAKOTA  *****
  
CITY           SKY/WX    TMP DP  RH WIND       PRES   REMARKS
SIOUX FALLS    CLOUDY    25  18  74 N17       30.48R WCI  12          
6HR MIN TEMP:  25; 6HR MAX TEMP:  32;                                

BROOKINGS      NOT AVBL                                               
WATERTOWN      CLOUDY    21  15  78 N15       30.46R WCI   8          
6HR MIN TEMP:  21; 6HR MAX TEMP:  26;                                

HURON          CLOUDY    27  19  72 N13       30.51R WCI  16          
6HR MIN TEMP:  27; 6HR MAX TEMP:  31;                                

SISSETON         N/A     20  14  77 N13       30.51R WCI   7          
ABERDEEN       CLOUDY    24  16  71 N13       30.52R WCI  12          
6HR MIN TEMP:  24; 6HR MAX TEMP:  27;                                

MITCHELL       PTCLDY    27  20  75 N9        30.52R WCI  18          
PIERRE         CLEAR     32  20  61 CALM      30.45S                  
6HR MIN TEMP:  32; 6HR MAX TEMP:  39;                                

MOBRIDGE       CLEAR     29  20  69 NE7       30.44R WCI  22          
RAPID CITY     CLEAR     36  15  42 E5        30.39S                  
6HR MIN TEMP:  36; 6HR MAX TEMP:  47;                                

$$

  *****  SOME WEATHER IN NEARBY STATES *****
  
CITY           SKY/WX    TMP DP  RH WIND       PRES   REMARKS
GLASGOW MT     CLEAR     34  29  82 E13       30.26F WCI  25          
6HR MIN TEMP:  27; 6HR MAX TEMP:  36;                                

GREAT FALLS MT MOCLDY    44  19  36 SW13      30.20S                  
6HR MIN TEMP:  41; 6HR MAX TEMP:  52;                                

CHEYENNE WY    PTCLDY    38  23  55 S12       30.37F                  
6HR MIN TEMP:  38; 6HR MAX TEMP:  44;                                

SCOTTSBLUFF NE CLEAR     41  22  46 SE7       30.41R                  
6HR MIN TEMP:  40; 6HR MAX TEMP:  50;                                

OMAHA NE       MOCLDY    35  25  66 N12       30.47R                  
6HR MIN TEMP:  35; 6HR MAX TEMP:  39;                                

DES MOINES IA  CLOUDY    32  21  64 NW21G30   30.42R WCI  20          
6HR MIN TEMP:  32; 6HR MAX TEMP:  37;                                

DAVENPORT IA   CLOUDY    33  24  69 NW17G35   30.27R WCI  22          
6HR MIN TEMP:  33; 6HR MAX TEMP:  35;                                

CHICAGO IL     CLOUDY    34  24  67 NW13      30.14R WCI  25          
6HR MIN TEMP:  33; 6HR MAX TEMP:  34;                                

EAU CLAIRE WI  CLOUDY    25  13  60 NW20G30   30.30R WCI  11          
6HR MIN TEMP:  25; 6HR MAX TEMP:  34;                                

LA CROSSE WI   CLOUDY    30  17  58 N14       30.30R WCI  19          
6HR MIN TEMP:  30; 6HR MAX TEMP:  39;                                

$$

  *****  SOME NATIONAL WEATHER *****
  
CITY           SKY/WX    TMP DP  RH WIND       PRES   REMARKS
LA GUARDIA NY  CLOUDY    33  26  75 S8        30.11F                  

Return to Home page


Western Regional Climate Center, wrcc@dri.edu